[Iaude] MPEC V95: 2019 UU13 [a=2.54,e=0.87,i=58.4,H=19.21]
    mpec at marsden.cfa.harvard.edu 
    mpec at marsden.cfa.harvard.edu
       
    Tue Nov  7 09:20:02 EST 2023
    
    
  
M.P.E.C. 2023-V95                              Issued 2023 November 7, 14:18 UT
     The Minor Planet Electronic Circulars contain information on unusual
         minor planets, routine data on comets and natural satellites,
         and occasional editorial announcements.  They are published
    on behalf of Division F of the International Astronomical Union by the
          Minor Planet Center, Smithsonian Astrophysical Observatory,
                          Cambridge, MA 02138, U.S.A.
			  
             Prepared using the Tamkin Foundation Computer Network
                              MPC at CFA.HARVARD.EDU
            URL https://www.minorplanetcenter.net/    ISSN 1523-6714
                                   2019 UU13                                    
                           Revision to MPEC 2019-V15                            
Additional Observations:
     K19U13U  C2023 10 18.44264 06 04 05.94 -29 09 49.6          22.1 GVEV095I52
     K19U13U  C2023 10 18.44974 06 04 04.37 -29 09 52.4          21.1 GVEV095I52
     K19U13U  C2023 10 18.45517 06 04 03.17 -29 09 52.6          21.3 GVEV095I52
     K19U13U  C2023 10 18.46058 06 04 01.94 -29 09 54.3                VEV095I52
     K19U13U KC2023 11 06.36783204 48 24.343-28 02 26.23         22.03GVEV095I52
     K19U13U KC2023 11 06.37729404 48 22.025-28 02 20.22         21.62GVEV095I52
     K19U13U KC2023 11 06.38496104 48 20.102-28 02 15.36         22.02GVEV095I52
     K19U13U KC2023 11 06.39036904 48 18.742-28 02 10.90         22.32GVEV095I52
Observer details:
I52 Steward Observatory, Mt. Lemmon Station.  Observers G. J. Leonard, R. A.
    Kowalski.  Measurers E. C. Beshore, D. Fay, J. B. Fazekas, D. C. Fuls, A.
    R. Gibbs, A. D. Grauer, H. Groeller, J. K. Hogan, R. A. Kowalski, S. M.
    Larson, G. J. Leonard, D. Rankin, R. L. Seaman, F. C. Shelly, K. W.
    Wierzchos.  1.0-m f/2.0 prime focus + CCD, 1.0-m prime focus + CCD.
First and last observations above in comparison with prediction:
Residuals in seconds of arc (or two decimals in degrees), reference and Delta-T
231018 I52 0.13+ 0.23+    231106 I52 0.02+ 0.22+    E2023-R23   -0.35 days
Orbital elements:
2019 UU13                                                Earth MOID = 0.6742 AU
Epoch 2023 Sept. 13.0 TT = JDT 2460200.5                Veres                   
M  10.32288              (2000.0)            P               Q                  
n   0.24403238     Peri.  190.59615     -0.25850853     +0.54630726             
a   2.5361275      Node    69.23363     -0.81223718     +0.32351777             
e   0.8679418      Incl.   58.43518     -0.52291883     -0.77258309             
P   4.04           H   19.21          G   0.15           U   1                  
Residuals in seconds of arc
191027 F52  0.3+  0.3+    191031 291  0.3-  0.1-    191118 807  0.0   0.1-
191027 F52  0.1+  0.2-    191101 H01  0.0   0.0     191126 807  0.2+  0.1-
191027 F52  0.1-  0.0     191101 H01  0.0   0.1-    191126 807  0.1+  0.2-
191028 568  0.1-  0.0     191101 H01  0.0   0.2-    191126 807  0.3+  0.2+
191028 568  0.0   0.0     191101 H01  0.0   0.0     191204 T12  0.0   0.2+
191028 568  0.0   0.0     191102 H01  0.1+  0.0     191204 T12  0.0   0.2+
191029 807  0.1+  0.1-    191102 H01  0.0   0.1+    231018 I52  0.1-  0.3+
191029 807  0.1+  0.5-    191102 H01  0.1+  0.1+    231018 I52  0.1+  0.8-
191029 807  0.2-  0.3-    191102 H01  0.0   0.1+    231018 I52  0.3+  0.3+
191031 V06  0.3+  0.0     191118 V06  0.1-  0.1+    231018 I52  0.1-  0.2-
191031 V06  0.1-  0.2-    191118 V06  0.0   0.2-    231106 I52  0.0   0.7+
191031 V06  0.4+  0.3-    191118 V06  0.1-  0.1+    231106 I52  0.3+  0.1+
191031 V06  0.2+  0.1+    191118 V06  0.3+  0.7+    231106 I52  0.0   0.4-
191031 291  0.1-  0.2-    191118 807  0.1-  0.4-    231106 I52  0.2-  0.2+
191031 291  0.1-  0.3-    191118 807  0.1-  0.2-
Ephemeris:
2019 UU13                a,e,i = 2.54, 0.87, 58                  q = 0.3349
Date    TT    R. A. (2000) Decl.     Delta      r    Elong.  Phase     V
2023 10 08    06 38 53.3 -28 02 12   0.9833  1.4053    90.3    45.3    21.6
...
2023 10 23    05 46 51.7 -29 20 00   0.9796  1.6143   109.7    35.5    21.7
...
2023 10 31    05 14 36.2 -28 58 56   0.9955  1.7191   119.7    30.1    21.7
...
2023 11 06    04 49 54.4 -28 06 34   1.0200  1.7950   126.3    26.4    21.7
2023 11 07    04 45 50.4 -27 54 47   1.0253  1.8075   127.3    25.8    21.7
2023 11 08    04 41 48.0 -27 42 08   1.0310  1.8199   128.3    25.3    21.7
...
2023 11 14    04 18 24.9 -26 09 41   1.0729  1.8929   133.2    22.4    21.8
...
2023 11 22    03 50 37.9 -23 30 51   1.1506  1.9873   136.5    20.0    22.0
...
2023 12 07    03 12 05.8 -17 43 15   1.3598  2.1556   133.0    19.5    22.5
A. U. Tomatic                (C) Copyright 2023 MPC           M.P.E.C. 2023-V95
    
    
More information about the Iaude
mailing list